COSMOS 2208

Satellite information

Favourite Embed

Satellite Type and Status

PAYLOADIN ORBIT

Key statistics

Satellite COSMOS 2208 at a glance.

Uptime

12017

Days in orbit

Revolutions

≈ 14.3

Per day

Orbit

LEO

Low Earth Orbit

Inclination

74.0

Latest

Satellite identification and parameters

Extended collection of information and parameters for COSMOS 2208.

Object identification

Identified? True

Debris? False

Object name: COSMOS 2208

International designator: 1992-053A

Object number (NORAD): 22080

Object ID (CCSDS): 22080

Country: COMMONWEALTH OF INDEPENDENT STATES (CIS)

Current information (Y/N): Y

RCS size: LARGE

Orbital parameters

Period: 100.601 minutes

Inclination: 74.0401 deg

SMA: 7165.199 km

Apoapsis: 795.375 km

Periapsis: 778.753 km

RAAN: 183.2375 deg

Eccentricy: 0.0011599

Argument of periapsis: 96.371 deg

Mean anomaly: 263.8761 deg

Mean motion: 14.3139781 rev/day

Mean motion (dot): 0.00000072 rev/day2

B* drag term: 0.000036849 1/REarth

Two-line elements (TLE)

Creation date: July 6, 2025, 6:05 p.m.

Reference frame: TEME

Reference center: EARTH

Epoch: July 6, 2025, 10:15 a.m. UTC

TLE line 0: 0 COSMOS 2208

TLE line 1: 1 22080U 92053A 25187.42727355 .00000072 00000-0 36849-4 0 9992

TLE line 2: 2 22080 74.0401 183.2375 0011599 96.3710 263.8761 14.31397810717162

Live tracking on map

Real-time ground track for satellite COSMOS 2208.

In-orbit conjunctions

A list of the most updated potential collisions computed for object COSMOS 2208.

Target Orbit TCA Probability of collision Miss distance Type
NOAA 16 DEB SSO 2025-03-17 22:01:39 0.0001655781 344.0 (m) DEBRIS
FENGYUN 1C DEB SSO 2025-01-06 19:25:54 0.001375854 177.0 (m) DEBRIS
CZ-6A DEB SSO 2024-12-18 10:38:02 0.0001979014 740.0 (m) DEBRIS
DMSP 5D-2 F13 DEB SSO 2024-12-16 23:17:41 0.0003297518 352.0 (m) DEBRIS
COSMOS 2251 DEB LEO 2024-10-28 06:44:02 0.0002372406 246.0 (m) DEBRIS

Associated space launch

Military communications satellite

COSMOS 2208 was lifted into orbit during the mission ‘Kosmos-3M | Strela-2M 50’, on board a Kosmos-3M space rocket.

The launch took place on Aug. 12, 1992, 5:44 a.m. from 132/1 (132L).

For more information about the launch, click the button.

Launch to space Kosmos-3M | Strela-2M 50
Kosmos-3M | Strela-2M 50

Agency: N/A

Status: Launch Successful

Launch date: Aug. 12, 1992, 5:44 a.m. UTC

Rocket: Kosmos-3M

Launch pad: 132/1 (132L)

Location: Plesetsk Cosmodrome, Russian Federation

...

Latest news about this satellite

There are no fresh news available about this satellite. Check back as we update our databases every day.


Newsletter sign-up

Weekly statistics, charts and insights to help you stay on top of the space industry.